Alamosa, CO

8:12 PM MST on January 17, 2018 (GMT -0700)
San Luis Valley Regional / Bergman Field

Weather History for KALS - October, 2013

Change the Weather History Date:

Monday, October 7, 2013

  Actual Average Record
Temperature  
Mean Temperature 47 °F 47 °F  
Max Temperature 71 °F 65 °F 81 °F (1979)
Min Temperature 22 °F 28 °F 10 °F (1955)
Degree Days  
Heating Degree Days 18 18  
Month to date heating degree days 130 120  
Since 1 July heating degree days 427 551  
Cooling Degree Days 0 0  
Month to date cooling degree days 0 0  
Year to date cooling degree days 113 51  
Moisture  
Dew Point 21 °F    
Average Humidity 45    
Maximum Humidity 75    
Minimum Humidity 15    
Precipitation  
Precipitation 0.00 in 0.02 in 0.30 in (1946)
Month to date precipitation 0.00 0.15  
Year to date precipitation 7.86 6.01  
Snow  
Snow 0.00 in 0.10 in 1.80 in (1970)
Month to date snowfall 0.0 0.2  
Since 1 July snowfall 0.0 0.2  
Since 1 September snowfall 0.0 0.2  
Snow Depth 0.00 in    
Sea Level Pressure  
Sea Level Pressure 30.19 in    
Wind  
Wind Speed 4 mph (SSE)    
Max Wind Speed 17 mph    
Max Gust Speed 22 mph    
Visibility 10 miles    
Events      
T = Trace of Precipitation, MM = Missing Value Source: NWS Daily Summary

Daily Weather History Graph

Daily Weather History Graph

Search for Another Location

Airport or City:

Trip Planner

Search our weather history database for the weather conditions in past years. The results will help you decide how hot, cold, wet, or windy it might be!

Date:

Astronomy

Oct. 07, 2013 Rise Set
Actual Time 7:04 AM MDT 6:37 PM MDT
Civil Twilight 6:38 AM MDT 7:03 PM MDT
Nautical Twilight 6:08 AM MDT 7:33 PM MDT
Astronomical Twilight 5:37 AM MDT 8:03 PM MDT
Moon 9:53 AM MDT (10/7) 8:28 PM MDT (10/7)
Length of Visible Light 12h 25m
Length of Day
11h 32m
Waxing Crescent, 9% of the Moon is Illuminated
Oct 7
Waxing Crescent
Oct 11
First Quarter
Oct 18
Full
Oct 26
Last Quarter
Nov 3
New

Hourly Weather History & Observations

Time (MDT) Temp. Windchill Dew Point Humidity Pressure Visibility Wind Dir Wind Speed Gust Speed Precip Events Conditions
12:52 AM 30.9 °F - 21.9 °F 69% 30.29 in 10.0 mi Calm Calm - N/A   Clear
1:52 AM 28.9 °F - 21.9 °F 75% 30.29 in 10.0 mi Calm Calm - N/A   Clear
2:52 AM 28.0 °F - 19.9 °F 72% 30.28 in 10.0 mi Calm Calm - N/A   Clear
3:52 AM 27.0 °F - 19.0 °F 72% 30.27 in 10.0 mi Calm Calm - N/A   Clear
4:52 AM 26.1 °F - 19.0 °F 75% 30.27 in 10.0 mi Calm Calm - N/A   Clear
5:52 AM 25.0 °F - 18.0 °F 75% 30.28 in 10.0 mi Calm Calm - N/A   Clear
6:52 AM 24.1 °F - 18.0 °F 77% 30.34 in 10.0 mi Calm Calm - N/A   Clear
7:52 AM 30.9 °F - 21.0 °F 67% 30.35 in 10.0 mi Calm Calm - N/A   Clear
8:52 AM 39.0 °F - 21.0 °F 49% 30.32 in 10.0 mi Calm Calm - N/A   Clear
9:52 AM 46.0 °F 44.8 °F 21.0 °F 37% 30.32 in 10.0 mi Variable 3.5 mph - N/A   Clear
10:52 AM 53.1 °F - 21.9 °F 30% 30.27 in 10.0 mi Variable 4.6 mph - N/A   Clear
11:52 AM 55.9 °F - 21.0 °F 26% 30.25 in 10.0 mi Calm Calm - N/A   Clear
12:52 PM 61.0 °F - 19.9 °F 21% 30.21 in 10.0 mi Variable 3.5 mph - N/A   Clear
1:52 PM 64.9 °F - 21.0 °F 19% 30.14 in 10.0 mi Variable 5.8 mph - N/A   Clear
2:52 PM 66.9 °F - 21.0 °F 17% 30.11 in 10.0 mi SSE 5.8 mph - N/A   Clear
3:52 PM 70.0 °F - 19.9 °F 15% 30.06 in 10.0 mi SSE 8.1 mph - N/A   Clear
4:52 PM 70.0 °F - 19.0 °F 14% 30.06 in 10.0 mi SE 8.1 mph - N/A   Clear
5:52 PM 66.9 °F - 19.9 °F 17% 30.06 in 10.0 mi SE 13.8 mph - N/A   Clear
6:52 PM 57.9 °F - 24.1 °F 27% 30.11 in 10.0 mi SE 10.4 mph - N/A   Clear
7:52 PM 52.0 °F - 23.0 °F 32% 30.10 in 10.0 mi SE 10.4 mph - N/A   Clear
8:52 PM 46.9 °F - 23.0 °F 39% 30.11 in 10.0 mi South 8.1 mph - N/A   Clear
9:52 PM 44.1 °F 40.1 °F 23.0 °F 43% 30.11 in 10.0 mi South 6.9 mph - N/A   Clear
10:52 PM 39.9 °F 36.7 °F 23.0 °F 51% 30.08 in 10.0 mi SE 4.6 mph - N/A   Clear
11:52 PM 37.9 °F - 24.1 °F 57% 30.08 in 10.0 mi Calm Calm - N/A   Clear